Powrót do katalogu

PSLV DEB

AktywnySSO
NORAD 27160·DEBRIS·🇮🇳 India

Wystrzelony Oct 22, 2001 z Satish Dhawan Space Centre

Loading…

Następne Przeloty (najbliższe 24 godziny)

TLE

ŚwieżeSource: Space-Track

Epoka: Sep 14, 2026, 09:16 UTC

1 27160U 01049DG  26257.38637730  .00000209  00000-0  42717-4 0  9995
2 27160  98.3523 296.5714 0045056 331.1559  41.2480 14.70719072324162

Śledź PSLV DEB w czasie rzeczywistym z AllMySat

Download on the App Store